Social login voor leden:

1. METAR EBOS

METAR EBOS 181150Z 02009KT 340V060 9999 FEW038 SCT048 17/06 Q1029 NOSIG

2. TAF EBOS

TAF EBOS 181150Z 02009KT 340V060 9999 FEW038 SCT048 17/06 Q1029 NOSIG

3. NOTAMS EBOS

Klik hier voor een overzicht van de notams.

Deze pagina promoten

Noordzee Vliegclub - Nieuwpoortsesteenweg 947 8400 Oostende - Tel 059 30 04 79 - Dit e-mailadres wordt beveiligd tegen spambots. JavaScript dient ingeschakeld te zijn om het te bekijken.

 - Copyright 2017